Weather History for College Station, TX

Change the Weather History Date:

Thursday, November 10, 2011

  Actual Average Record
Temperature  
Mean Temperature 54 °F 63 °F  
Max Temperature 68 °F 73 °F 87 °F (1911)
Min Temperature 40 °F 53 °F 33 °F (1948)
Degree Days  
Heating Degree Days 11 5  
Month to date heating degree days 50 38  
Since 1 July heating degree days 88 75  
Cooling Degree Days 0 3  
Month to date cooling degree days 34 33  
Year to date cooling degree days 3972 3045  
Growing Degree Days 4 (Base 50)    
Moisture  
Dew Point 27 °F    
Average Humidity 41    
Maximum Humidity 65    
Minimum Humidity 16    
Precipitation  
Precipitation 0.00 in 0.11 in 0.40 in (1985)
Month to date precipitation 0.01 1.13  
Year to date precipitation 14.14 34.74  
Sea Level Pressure  
Sea Level Pressure 30.38 in    
Wind  
Wind Speed 7 mph (North)    
Max Wind Speed 16 mph    
Max Gust Speed 21 mph    
Visibility 10 miles    
Events      
T = Trace of Precipitation, MM = Missing Value Source: NWS Daily Summary

Daily Weather History Graph

Daily Weather History Graph

Search for Another Location

Airport:

Trip Planner

Search our weather history database for the weather conditions in past years. The results will help you decide how hot, cold, wet, or windy it might be!

Date:

Astronomy

Nov. 10, 2011 Rise Set
Actual Time 6:47 AM CST 5:31 PM CST
Civil Twilight 6:21 AM CST 5:56 PM CST
Nautical Twilight 5:53 AM CST 6:25 PM CST
Astronomical Twilight 5:24 AM CST 6:53 PM CST
Moon 5:23 PM CST (11/10) 6:37 AM CST (11/10)
Length of Visible Light 11h 34m
Length of Day
10h 43m
Full, 100% of the Moon is Illuminated
Nov 10
Full
Nov 10
Full
Nov 18
Last Quarter
Nov 25
New
Dec 2
First Quarter

Hourly Weather History & Observations

Time (CST) Temp. Windchill Dew Point Humidity Pressure Visibility Wind Dir Wind Speed Gust Speed Precip Events Conditions
12:53 AM 52.0 °F - 33.1 °F 49% 30.36 in 10.0 mi NNW 10.4 mph - N/A   Clear
1:53 AM 51.1 °F - 32.0 °F 48% 30.38 in 10.0 mi NNW 8.1 mph - N/A   Clear
2:53 AM 48.9 °F - 33.1 °F 54% 30.38 in 10.0 mi North 8.1 mph - N/A   Clear
3:53 AM 46.4 °F 42.4 °F 33.8 °F 62% 30.39 in 10.0 mi North 8.1 mph - N/A   Clear
4:53 AM 46.9 °F - 34.0 °F 61% 30.40 in 10.0 mi North 10.4 mph - N/A   Clear
5:53 AM 44.1 °F 39.5 °F 34.0 °F 68% 30.42 in 10.0 mi North 8.1 mph - N/A   Clear
6:53 AM 44.6 °F 41.4 °F 33.8 °F 66% 30.44 in 10.0 mi NNW 5.8 mph - N/A   Clear
7:53 AM 48.0 °F - 34.0 °F 58% 30.46 in 10.0 mi NNW 4.6 mph - N/A   Clear
8:53 AM 55.0 °F - 30.9 °F 40% 30.48 in 10.0 mi North 12.7 mph - N/A   Clear
9:53 AM 60.1 °F - 28.0 °F 30% 30.48 in 10.0 mi North 10.4 mph - N/A   Clear
10:53 AM 62.6 °F - 24.8 °F 24% 30.47 in 10.0 mi NE 11.5 mph - N/A   Clear
11:53 AM 64.4 °F - 23.0 °F 21% 30.44 in 10.0 mi NNE 8.1 mph 17.3 mph N/A   Clear
12:53 PM 66.0 °F - 21.0 °F 18% 30.39 in 10.0 mi North 11.5 mph - N/A   Clear
1:53 PM 66.0 °F - 21.0 °F 18% 30.36 in 10.0 mi NNE 12.7 mph - N/A   Clear
2:53 PM 66.2 °F - 19.4 °F 17% 30.33 in 10.0 mi Variable 4.6 mph - N/A   Clear
3:53 PM 66.9 °F - 21.0 °F 17% 30.32 in 10.0 mi NNW 10.4 mph - N/A   Clear
4:53 PM 64.0 °F - 21.0 °F 19% 30.32 in 10.0 mi North 9.2 mph - N/A   Clear
5:53 PM 57.9 °F - 21.0 °F 24% 30.32 in 10.0 mi North 3.5 mph - N/A   Clear
6:53 PM 55.0 °F - 23.0 °F 29% 30.32 in 10.0 mi Calm Calm - N/A   Clear
7:53 PM 48.0 °F - 25.0 °F 41% 30.34 in 10.0 mi Calm Calm - N/A   Clear
8:53 PM 48.0 °F - 25.0 °F 41% 30.33 in 10.0 mi Calm Calm - N/A   Clear
9:53 PM 46.0 °F - 26.1 °F 46% 30.33 in 10.0 mi Calm Calm - N/A   Clear
10:53 PM 43.0 °F - 27.0 °F 53% 30.32 in 10.0 mi Calm Calm - N/A   Clear
11:53 PM 43.0 °F - 26.1 °F 51% 30.32 in 10.0 mi Calm Calm - N/A   Clear